RYR1535 EGLL-EKCH

Flight info

Callsign RYR1535
Flight time 1h 24m
Altitude 37000
Route BPK Q295 SOMVA DCT MAVAS DCT ROCZO DCT DOSUR P729 TUDLO
Aircraft B738/M-SDE2E3FGHIRWXY/LB1

Departure

Time 2026-05-07 04:18
Airport London Heathrow Airport (EGLL)

Arrival

Time 2026-05-07 05:42
Airport Copenhagen Kastrup Airport (EKCH)
Time Latitude Longitude Altitude Speed Heading
2026-05-07 03:55 51.47415 -0.44217 86 ft 0 kts 270°
2026-05-07 04:08 51.47415 -0.44214 86 ft 1 kts 270°
2026-05-07 04:08 51.47414 -0.44191 86 ft 2 kts 273°
2026-05-07 04:09 51.47414 -0.44167 86 ft 2 kts 271°
2026-05-07 04:09 51.47414 -0.44143 86 ft 2 kts 272°
2026-05-07 04:09 51.47413 -0.44119 86 ft 2 kts 272°
2026-05-07 04:09 51.47413 -0.44095 86 ft 2 kts 272°
2026-05-07 04:10 51.47413 -0.44074 86 ft 0 kts 272°
2026-05-07 04:10 51.47412 -0.44067 86 ft 0 kts 237°
2026-05-07 04:10 51.47416 -0.44060 86 ft 0 kts 194°
2026-05-07 04:10 51.47420 -0.44060 86 ft 1 kts 174°
2026-05-07 04:11 51.47423 -0.44060 86 ft 0 kts 180°
2026-05-07 04:13 51.47340 -0.44059 85 ft 23 kts 180°
2026-05-07 04:13 51.47103 -0.44059 85 ft 45 kts 179°
2026-05-07 04:14 51.46763 -0.44055 84 ft 35 kts 180°
2026-05-07 04:14 51.46667 -0.44138 84 ft 19 kts 292°
2026-05-07 04:14 51.46670 -0.44314 84 ft 17 kts 252°
2026-05-07 04:14 51.46663 -0.44634 84 ft 39 kts 270°
2026-05-07 04:15 51.46663 -0.45111 84 ft 43 kts 271°
2026-05-07 04:15 51.46661 -0.45581 85 ft 41 kts 270°
2026-05-07 04:15 51.46659 -0.46045 85 ft 40 kts 269°
2026-05-07 04:15 51.46657 -0.46492 84 ft 40 kts 270°
2026-05-07 04:16 51.46656 -0.46942 84 ft 39 kts 270°
2026-05-07 04:16 51.46655 -0.47374 84 ft 35 kts 271°
2026-05-07 04:16 51.46654 -0.47713 85 ft 29 kts 270°
2026-05-07 04:16 51.46653 -0.48042 85 ft 29 kts 270°
2026-05-07 04:17 51.46609 -0.48212 85 ft 7 kts 187°
2026-05-07 04:17 51.46552 -0.48215 84 ft 8 kts 180°
2026-05-07 04:17 51.46493 -0.48196 84 ft 8 kts 144°
2026-05-07 04:17 51.46479 -0.48108 84 ft 8 kts 88°
2026-05-07 04:18 51.46481 -0.47997 84 ft 15 kts 89°
2026-05-07 04:18 51.46486 -0.47130 84 ft 137 kts 90°
2026-05-07 04:18 51.46489 -0.45202 658 ft 195 kts 89°
2026-05-07 04:18 51.46514 -0.43113 2268 ft 201 kts 88°
2026-05-07 04:19 51.46652 -0.40899 3611 ft 217 kts 74°
2026-05-07 04:19 51.47446 -0.38795 4891 ft 234 kts 49°
2026-05-07 04:19 51.48576 -0.36859 6061 ft 253 kts 46°
2026-05-07 04:19 51.49783 -0.34745 7164 ft 271 kts 49°
2026-05-07 04:20 51.51061 -0.32358 8356 ft 291 kts 50°
2026-05-07 04:20 51.52305 -0.29739 9214 ft 310 kts 58°
2026-05-07 04:20 51.53243 -0.26555 9662 ft 324 kts 69°
2026-05-07 04:21 51.54655 -0.19662 10504 ft 328 kts 69°
2026-05-07 04:21 51.55801 -0.16517 10923 ft 328 kts 46°
2026-05-07 04:21 51.57693 -0.14527 11359 ft 328 kts 19°
2026-05-07 04:21 51.59938 -0.13962 11813 ft 329 kts 359°
2026-05-07 04:22 51.62200 -0.14280 12265 ft 332 kts 352°
2026-05-07 04:22 51.64497 -0.14799 12687 ft 334 kts 356°
2026-05-07 04:22 51.66798 -0.14604 13119 ft 337 kts
2026-05-07 04:22 51.69104 -0.13760 13559 ft 339 kts 15°
2026-05-07 04:23 51.71311 -0.12517 13987 ft 342 kts 26°
2026-05-07 04:23 51.73243 -0.10269 14423 ft 346 kts 45°
2026-05-07 04:23 51.74705 -0.07170 14853 ft 350 kts 58°
2026-05-07 04:23 51.75672 -0.03592 15280 ft 353 kts 74°
2026-05-07 04:24 51.76139 0.00299 15717 ft 356 kts 81°
2026-05-07 04:24 51.76433 0.04306 16148 ft 358 kts 83°
2026-05-07 04:24 51.76688 0.08304 16568 ft 361 kts 83°
2026-05-07 04:24 51.76953 0.12280 16999 ft 363 kts 83°
2026-05-07 04:25 51.77247 0.16360 17432 ft 365 kts 82°
2026-05-07 04:25 51.77559 0.20429 17856 ft 368 kts 82°
2026-05-07 04:25 51.77885 0.24519 18291 ft 370 kts 82°
2026-05-07 04:25 51.78222 0.28651 18724 ft 373 kts 82°
2026-05-07 04:26 51.78560 0.32817 19162 ft 376 kts 82°
2026-05-07 04:26 51.78892 0.36950 19590 ft 378 kts 82°
2026-05-07 04:26 51.79225 0.41145 20024 ft 380 kts 82°
2026-05-07 04:26 51.79561 0.45381 20463 ft 382 kts 82°
2026-05-07 04:27 51.79899 0.49657 20901 ft 385 kts 82°
2026-05-07 04:27 51.80235 0.53933 21339 ft 387 kts 82°
2026-05-07 04:27 51.80575 0.58220 21777 ft 389 kts 81°
2026-05-07 04:27 51.81003 0.62576 22217 ft 391 kts 78°
2026-05-07 04:28 51.81644 0.66796 22647 ft 393 kts 72°
2026-05-07 04:28 51.82534 0.70959 23088 ft 395 kts 68°
2026-05-07 04:28 51.83563 0.75110 23525 ft 396 kts 67°
2026-05-07 04:28 51.84636 0.79197 23962 ft 397 kts 66°
2026-05-07 04:29 51.85733 0.83321 24409 ft 400 kts 66°
2026-05-07 04:29 51.86822 0.87422 24854 ft 401 kts 66°
2026-05-07 04:29 51.87916 0.91582 25304 ft 403 kts 66°
2026-05-07 04:29 51.89004 0.95753 25762 ft 405 kts 66°
2026-05-07 04:30 51.90100 0.99983 26222 ft 408 kts 66°
2026-05-07 04:30 51.91180 1.04181 26671 ft 410 kts 66°
2026-05-07 04:30 51.92271 1.08440 27130 ft 411 kts 66°
2026-05-07 04:30 51.93371 1.12744 27593 ft 414 kts 66°
2026-05-07 04:31 51.94468 1.17047 28053 ft 417 kts 66°
2026-05-07 04:31 51.95580 1.21419 28517 ft 420 kts 66°
2026-05-07 04:31 51.96703 1.25845 28985 ft 422 kts 66°
2026-05-07 04:31 51.97820 1.30256 29449 ft 425 kts 66°
2026-05-07 04:32 51.98944 1.34705 29914 ft 428 kts 66°
2026-05-07 04:32 52.00077 1.39200 30379 ft 430 kts 66°
2026-05-07 04:32 52.01200 1.43665 30843 ft 433 kts 66°
2026-05-07 04:32 52.02341 1.48212 31288 ft 436 kts 66°
2026-05-07 04:33 52.03498 1.52828 31723 ft 438 kts 66°
2026-05-07 04:33 52.04635 1.57376 32154 ft 437 kts 66°
2026-05-07 04:33 52.05776 1.61950 32590 ft 436 kts 66°
2026-05-07 04:33 52.06913 1.66521 33025 ft 435 kts 67°
2026-05-07 04:34 52.08050 1.71094 33462 ft 435 kts 67°
2026-05-07 04:34 52.09178 1.75643 33897 ft 434 kts 67°
2026-05-07 04:34 52.10318 1.80253 34341 ft 433 kts 67°
2026-05-07 04:34 52.11438 1.84789 34769 ft 433 kts 67°
2026-05-07 04:35 52.12555 1.89321 35144 ft 433 kts 67°
2026-05-07 04:35 52.13666 1.93837 35490 ft 433 kts 67°
2026-05-07 04:35 52.14771 1.98338 35835 ft 433 kts 67°
2026-05-07 04:35 52.15888 2.02896 36176 ft 434 kts 67°
2026-05-07 04:36 52.17009 2.07481 36515 ft 434 kts 67°
2026-05-07 04:36 52.18122 2.12041 36831 ft 436 kts 67°
2026-05-07 04:36 52.19248 2.16663 36979 ft 442 kts 67°
2026-05-07 04:36 52.20366 2.21264 37014 ft 444 kts 67°
2026-05-07 04:37 52.22606 2.30515 37035 ft 436 kts 67°
2026-05-07 04:37 52.24801 2.39622 37034 ft 431 kts 67°
2026-05-07 04:38 52.26998 2.48766 37031 ft 434 kts 67°
2026-05-07 04:38 52.29181 2.57896 37038 ft 435 kts 67°
2026-05-07 04:39 52.31329 2.67146 37030 ft 435 kts 71°
2026-05-07 04:39 52.33026 2.76311 37042 ft 438 kts 73°
2026-05-07 04:40 52.34642 2.85916 37027 ft 437 kts 74°
2026-05-07 04:40 52.36256 2.95502 37031 ft 437 kts 73°
2026-05-07 04:41 52.37880 3.05028 37038 ft 436 kts 73°
2026-05-07 04:41 52.39635 3.14450 37036 ft 437 kts 68°
2026-05-07 04:42 52.42342 3.23289 37037 ft 436 kts 58°
2026-05-07 04:42 52.45642 3.31614 37039 ft 436 kts 54°
2026-05-07 04:43 52.49057 3.39749 37039 ft 436 kts 54°
2026-05-07 04:43 52.52452 3.47945 37034 ft 435 kts 54°
2026-05-07 04:44 52.55799 3.56191 37029 ft 435 kts 55°
2026-05-07 04:44 52.59126 3.64480 37030 ft 435 kts 55°
2026-05-07 04:45 52.62439 3.72788 37032 ft 436 kts 56°
2026-05-07 04:45 52.65687 3.80963 37031 ft 436 kts 56°
2026-05-07 04:46 52.68997 3.89328 37031 ft 436 kts 56°
2026-05-07 04:46 52.72291 3.97680 37031 ft 436 kts 56°
2026-05-07 04:47 52.75594 4.06086 37028 ft 436 kts 56°
2026-05-07 04:47 52.78869 4.14448 37029 ft 437 kts 56°
2026-05-07 04:48 52.82135 4.22813 37028 ft 436 kts 56°
2026-05-07 04:48 52.85415 4.31239 37029 ft 436 kts 56°
2026-05-07 04:49 52.88695 4.39690 37028 ft 436 kts 56°
2026-05-07 04:49 52.91938 4.48075 37028 ft 436 kts 56°
2026-05-07 04:50 52.95211 4.56564 37028 ft 437 kts 56°
2026-05-07 04:50 52.98478 4.65069 37028 ft 437 kts 57°
2026-05-07 04:51 53.01725 4.73552 37030 ft 439 kts 57°
2026-05-07 04:51 53.04997 4.82128 37029 ft 439 kts 57°
2026-05-07 04:52 53.08252 4.90687 37028 ft 439 kts 57°
2026-05-07 04:52 53.11478 4.99198 37029 ft 438 kts 57°
2026-05-07 04:53 53.14727 5.07799 37030 ft 439 kts 57°
2026-05-07 04:53 53.17945 5.16351 37030 ft 439 kts 57°
2026-05-07 04:54 53.21170 5.24953 37021 ft 439 kts 57°
2026-05-07 04:54 53.24389 5.33562 37023 ft 441 kts 57°
2026-05-07 04:55 53.27625 5.42245 37018 ft 440 kts 57°
2026-05-07 04:55 53.30847 5.50924 37023 ft 440 kts 57°
2026-05-07 04:56 53.34068 5.59630 37021 ft 440 kts 57°
2026-05-07 04:56 53.37269 5.68312 37014 ft 439 kts 58°
2026-05-07 04:57 53.40481 5.77055 37018 ft 441 kts 58°
2026-05-07 04:57 53.43679 5.85791 37019 ft 441 kts 58°
2026-05-07 04:58 53.46857 5.94499 37016 ft 441 kts 58°
2026-05-07 04:58 53.50039 6.03252 37018 ft 441 kts 57°
2026-05-07 04:59 53.53228 6.12054 37018 ft 441 kts 57°
2026-05-07 04:59 53.56397 6.20831 37016 ft 442 kts 58°
2026-05-07 05:00 53.59564 6.29635 37010 ft 441 kts 58°
2026-05-07 05:00 53.62729 6.38463 37013 ft 441 kts 58°
2026-05-07 05:01 53.65898 6.47331 37014 ft 441 kts 58°
2026-05-07 05:01 53.69043 6.56166 37011 ft 442 kts 58°
2026-05-07 05:02 53.72184 6.65021 37013 ft 443 kts 58°
2026-05-07 05:02 53.75343 6.73959 37012 ft 443 kts 58°
2026-05-07 05:03 53.78507 6.82943 37011 ft 443 kts 59°
2026-05-07 05:03 53.81630 6.91842 37010 ft 444 kts 59°
2026-05-07 05:04 53.84769 7.00817 37007 ft 443 kts 59°
2026-05-07 05:04 53.87880 7.09747 37008 ft 443 kts 59°
2026-05-07 05:05 53.91016 7.18781 37005 ft 443 kts 59°
2026-05-07 05:05 53.94125 7.27776 37005 ft 444 kts 59°
2026-05-07 05:06 53.97219 7.36753 37005 ft 445 kts 59°
2026-05-07 05:06 54.00342 7.45848 37006 ft 445 kts 59°
2026-05-07 05:07 54.03428 7.54867 37005 ft 446 kts 59°
2026-05-07 05:07 54.06531 7.63975 37008 ft 446 kts 58°
2026-05-07 05:08 54.09642 7.73137 37011 ft 447 kts 59°
2026-05-07 05:08 54.12717 7.82228 37010 ft 447 kts 59°
2026-05-07 05:09 54.15948 7.91197 37006 ft 447 kts 54°
2026-05-07 05:09 54.19902 7.99311 37008 ft 446 kts 46°
2026-05-07 05:10 54.24183 8.06911 37008 ft 446 kts 44°
2026-05-07 05:10 54.28513 8.14451 37007 ft 446 kts 44°
2026-05-07 05:11 54.32816 8.22045 37009 ft 445 kts 45°
2026-05-07 05:11 54.37116 8.29735 37011 ft 446 kts 45°
2026-05-07 05:12 54.41373 8.37412 37007 ft 447 kts 45°
2026-05-07 05:12 54.45631 8.45131 37010 ft 447 kts 45°
2026-05-07 05:13 54.49878 8.52856 37007 ft 448 kts 45°
2026-05-07 05:13 54.54138 8.60637 37003 ft 447 kts 45°
2026-05-07 05:14 54.58400 8.68447 37011 ft 448 kts 46°
2026-05-07 05:14 54.62663 8.76285 37010 ft 448 kts 46°
2026-05-07 05:15 54.66898 8.84095 37009 ft 448 kts 46°
2026-05-07 05:15 54.71141 8.91947 37009 ft 449 kts 46°
2026-05-07 05:16 54.75391 8.99837 37005 ft 449 kts 46°
2026-05-07 05:16 54.79615 9.07706 37006 ft 450 kts 46°
2026-05-07 05:17 54.83867 9.15653 37009 ft 450 kts 46°
2026-05-07 05:17 54.88087 9.23627 37013 ft 451 kts 47°
2026-05-07 05:18 54.92213 9.31732 37016 ft 451 kts 47°
2026-05-07 05:18 54.96333 9.39938 37020 ft 452 kts 47°
2026-05-07 05:19 55.00458 9.48162 37021 ft 453 kts 47°
2026-05-07 05:19 55.04577 9.56376 37023 ft 452 kts 47°
2026-05-07 05:20 55.08640 9.64697 37028 ft 453 kts 51°
2026-05-07 05:20 55.11764 9.74246 37030 ft 453 kts 68°
2026-05-07 05:21 55.14724 9.89889 37024 ft 454 kts 74°
2026-05-07 05:22 55.16508 10.00443 37015 ft 454 kts 74°
2026-05-07 05:22 55.18300 10.10955 37018 ft 455 kts 73°
2026-05-07 05:23 55.20128 10.21546 37023 ft 456 kts 73°
2026-05-07 05:23 55.21949 10.32049 36571 ft 450 kts 73°
2026-05-07 05:23 55.22857 10.37289 35958 ft 453 kts 73°
2026-05-07 05:24 55.23769 10.42558 35415 ft 453 kts 73°
2026-05-07 05:24 55.24678 10.47824 34840 ft 454 kts 73°
2026-05-07 05:24 55.25581 10.53062 34184 ft 455 kts 72°
2026-05-07 05:24 55.26486 10.58332 33443 ft 456 kts 72°
2026-05-07 05:25 55.27394 10.63633 32607 ft 458 kts 73°
2026-05-07 05:25 55.28306 10.68961 31810 ft 459 kts 73°
2026-05-07 05:25 55.29223 10.74313 30910 ft 461 kts 73°
2026-05-07 05:25 55.30143 10.79687 29936 ft 462 kts 73°
2026-05-07 05:26 55.31059 10.85044 28883 ft 465 kts 73°
2026-05-07 05:26 55.31991 10.90511 27765 ft 468 kts 73°
2026-05-07 05:26 55.32912 10.95928 26645 ft 470 kts 73°
2026-05-07 05:26 55.33837 11.01401 25471 ft 473 kts 74°
2026-05-07 05:27 55.34758 11.06911 24709 ft 465 kts 74°
2026-05-07 05:27 55.35641 11.12236 24031 ft 457 kts 74°
2026-05-07 05:27 55.36511 11.17507 23926 ft 445 kts 74°
2026-05-07 05:27 55.37377 11.22773 23931 ft 450 kts 74°
2026-05-07 05:28 55.38248 11.28083 23931 ft 461 kts 74°
2026-05-07 05:28 55.39131 11.33487 23924 ft 464 kts 74°
2026-05-07 05:28 55.40022 11.38945 23927 ft 462 kts 74°
2026-05-07 05:28 55.40899 11.44327 23926 ft 461 kts 74°
2026-05-07 05:29 55.41774 11.49711 23924 ft 461 kts 74°
2026-05-07 05:29 55.42661 11.55132 23927 ft 461 kts 73°
2026-05-07 05:29 55.43680 11.60524 23929 ft 461 kts 69°
2026-05-07 05:29 55.44966 11.65610 23924 ft 462 kts 63°
2026-05-07 05:30 55.46578 11.70545 23926 ft 462 kts 58°
2026-05-07 05:30 55.48326 11.75259 23928 ft 462 kts 56°
2026-05-07 05:30 55.50155 11.79931 23929 ft 463 kts 54°
2026-05-07 05:30 55.52005 11.84563 23930 ft 462 kts 54°
2026-05-07 05:31 55.53848 11.89177 23927 ft 463 kts 54°
2026-05-07 05:31 55.55685 11.93824 23942 ft 464 kts 54°
2026-05-07 05:31 55.57487 11.98440 23778 ft 456 kts 55°
2026-05-07 05:31 55.59258 12.03016 22625 ft 450 kts 54°
2026-05-07 05:32 55.61063 12.07390 21448 ft 442 kts 51°
2026-05-07 05:32 55.63033 12.11503 20315 ft 432 kts 45°
2026-05-07 05:32 55.65099 12.15134 19156 ft 422 kts 41°
2026-05-07 05:32 55.67246 12.18535 18032 ft 413 kts 39°
2026-05-07 05:33 55.69600 12.22072 16790 ft 403 kts 38°
2026-05-07 05:33 55.71832 12.25535 15548 ft 395 kts 45°
2026-05-07 05:33 55.73264 12.29555 14475 ft 387 kts 70°
2026-05-07 05:33 55.73594 12.34222 13731 ft 370 kts 95°
2026-05-07 05:34 55.72800 12.38435 13057 ft 354 kts 122°
2026-05-07 05:34 55.71102 12.41411 12477 ft 336 kts 150°
2026-05-07 05:34 55.68964 12.42738 11983 ft 318 kts 170°
2026-05-07 05:34 55.66849 12.43252 11554 ft 302 kts 176°
2026-05-07 05:35 55.64774 12.43321 10945 ft 295 kts 184°
2026-05-07 05:35 55.62792 12.42839 10248 ft 291 kts 193°
2026-05-07 05:35 55.60872 12.41760 9546 ft 288 kts 204°
2026-05-07 05:35 55.59101 12.40202 8827 ft 285 kts 210°
2026-05-07 05:36 55.57457 12.38335 8115 ft 283 kts 218°
2026-05-07 05:36 55.55946 12.36204 7399 ft 281 kts 219°
2026-05-07 05:36 55.54368 12.34203 6799 ft 272 kts 212°
2026-05-07 05:36 55.52722 12.33025 6077 ft 254 kts 185°
2026-05-07 05:37 55.51067 12.33492 5328 ft 237 kts 152°
2026-05-07 05:37 55.49776 12.35060 4725 ft 219 kts 133°
2026-05-07 05:37 55.48759 12.36939 4264 ft 202 kts 128°
2026-05-07 05:37 55.47958 12.38789 3862 ft 182 kts 114°
2026-05-07 05:38 55.47702 12.40826 3419 ft 164 kts 78°
2026-05-07 05:38 55.47997 12.42660 3044 ft 152 kts 63°
2026-05-07 05:38 55.48582 12.44129 2573 ft 147 kts 30°
2026-05-07 05:38 55.49452 12.44966 2427 ft 138 kts 36°
2026-05-07 05:39 55.50205 12.46050 2216 ft 148 kts 39°
2026-05-07 05:39 55.50981 12.47295 1990 ft 151 kts 41°
2026-05-07 05:39 55.51714 12.48546 1824 ft 142 kts 41°
2026-05-07 05:39 55.52413 12.49710 1626 ft 135 kts 40°
2026-05-07 05:40 55.53104 12.50820 1434 ft 134 kts 40°
2026-05-07 05:40 55.53809 12.51931 1224 ft 140 kts 41°
2026-05-07 05:40 55.54545 12.53110 1133 ft 142 kts 40°
2026-05-07 05:40 55.55267 12.54265 987 ft 141 kts 39°
2026-05-07 05:41 55.56015 12.55386 873 ft 143 kts 37°
2026-05-07 05:41 55.56779 12.56526 715 ft 143 kts 39°
2026-05-07 05:41 55.57482 12.57636 575 ft 123 kts 40°
2026-05-07 05:41 55.58099 12.58609 346 ft 120 kts 38°
2026-05-07 05:42 55.58719 12.59556 182 ft 119 kts 39°
2026-05-07 05:42 55.59336 12.60522 42 ft 118 kts 39°
2026-05-07 05:42 55.59887 12.61376 19 ft 78 kts 41°
2026-05-07 05:42 55.60146 12.61782 20 ft 41 kts 40°
2026-05-07 05:43 55.60357 12.62106 21 ft 38 kts 39°
2026-05-07 05:43 55.60578 12.62319 22 ft 35 kts 15°
2026-05-07 05:43 55.60743 12.62379 23 ft 17 kts 11°
2026-05-07 05:43 55.60839 12.62474 23 ft 15 kts 36°
2026-05-07 05:44 55.60921 12.62597 24 ft 15 kts 42°
2026-05-07 05:44 55.61001 12.62726 24 ft 15 kts 41°
2026-05-07 05:44 55.61090 12.62862 24 ft 20 kts 40°
2026-05-07 05:44 55.61277 12.63151 24 ft 30 kts 40°
2026-05-07 05:45 55.61436 12.63401 24 ft 31 kts 40°
2026-05-07 05:45 55.61601 12.63651 24 ft 31 kts 42°
2026-05-07 05:45 55.61765 12.63906 24 ft 31 kts 40°
2026-05-07 05:45 55.61941 12.64128 23 ft 30 kts 23°
2026-05-07 05:46 55.62029 12.64200 23 ft 13 kts 26°
2026-05-07 05:46 55.62114 12.64274 23 ft 14 kts 25°
2026-05-07 05:46 55.62207 12.64351 22 ft 15 kts 24°
2026-05-07 05:46 55.62309 12.64414 22 ft 15 kts 15°
2026-05-07 05:47 55.62419 12.64462 22 ft 16 kts 13°
2026-05-07 05:47 55.62462 12.64563 22 ft 0 kts 120°
2026-05-07 05:47 55.62458 12.64581 22 ft 2 kts 106°
2026-05-07 05:47 55.62461 12.64627 22 ft 7 kts 63°
2026-05-07 05:48 55.62520 12.64657 22 ft 9 kts 356°
2026-05-07 05:48 55.62592 12.64653 21 ft 10 kts
2026-05-07 05:48 55.62638 12.64625 21 ft 6 kts 292°
2026-05-07 05:48 55.62645 12.64563 22 ft 0 kts 278°